Terminal Aerodrome Forecast
Issued by NWS

Home | Current Version | Previous Version | Graphics & Text | Print | Product List | Glossary Off
Versions: 1 2 3 4 5 6 7 8 9 10 11 12 13

000
FTUS43 KDDC 151133
TAFGCK
TAF
KGCK 151133Z 1512/1612 25012KT P6SM BKN200
     FM151600 27015G25KT P6SM SCT250
     FM152000 34015G25KT P6SM SCT250
     FM152300 02020G30KT P6SM SCT200=

USA.gov is the U.S. government's official web portal to all federal, state and local government web resources and services.